Weather Roundup
Issued by NWS

Home | Current Version | Previous Version | Text Only | Print | Product List | Glossary On
Versions: 1 2 3 4 5 6 7 8 9 10 11 12 13 14 15 16 17 18 19 20 21 22 23 24 25 26 27 28 29 30 31 32 33 34 35 36 37 38 39 40 41 42 43 44 45 46 47 48 49 50
921
NZUS93 KARX 291210
HRRWXR

CURRENT HOURLY OBSERVATIONS ACROSS
MUCH OF THE UPPER MISSISSIPPI VALLEY
NATIONAL WEATHER SERVICE LA CROSSE WI
700 AM CDT WED MAR 29 2017


...SOUTHEAST MINNESOTA...


CITY           SKY/WX    TMP DP  RH WIND       PRES   REMARKS
ROCHESTER      CLOUDY    40  35  83 E9        30.19S WCI  34
ROCHESTER/MAYO FAIR      42  34  72 E6        30.19S
WINONA         CLOUDY    36  36 100 CALM      30.24S
AUSTIN         CLOUDY    41  36  81 E6        30.19R
ALBERT LEA     CLOUDY    43  36  75 E3        30.18R
DODGE CENTER   MOCLDY    39  36  87 E3        30.19S
PRESTON        CLOUDY    39  33  78 E7        30.19S WCI  34
OWATONNA       CLOUDY    43  36  75 SE3       30.19S
FARIBAULT      CLOUDY    43  37  81 SE7       30.20R
$$

...ELSEWHERE IN MINNESOTA...


CITY           SKY/WX    TMP DP  RH WIND       PRES   REMARKS
MINNEAPOLIS    CLOUDY    45  32  60 E8        30.21R
INTNL FALLS    CLOUDY    32  25  75 E6        30.28R WCI  26
DULUTH         CLOUDY    32  27  81 E16       30.28S WCI  21
RED WING       CLOUDY    36  30  80 CALM      30.21S
REDWOOD FALLS  CLOUDY    44  32  62 E6        30.17R
MANKATO        CLOUDY    42  37  82 E8        30.19R
WORTHINGTON    CLOUDY    38  36  92 N3        30.16R
FAIRMONT       CLOUDY    39  37  92 E3        30.17R
$$

...SOUTHWEST WISCONSIN...


CITY           SKY/WX    TMP DP  RH WIND       PRES   REMARKS
LA CROSSE      CLOUDY    41  32  70 E6        30.23S
PRAIRIE DU CHI CLOUDY    39  35  87 E5        30.21F
BOSCOBEL       CLOUDY    36  34  92 NE3       30.22F FOG
LONE ROCK      CLOUDY    34  31  88 E5        30.24S FOG     WCI  30
PLATTEVILLE    CLOUDY    38  38 100 E8        30.20S WCI  32
FORT MC COY    CLOUDY    29  28  96 CALM      30.26F
CAMP DOUGLAS   PTCLDY    30  28  93 CALM      30.26S
MAUSTON-NEW LI PTSUNNY   32  31  96 CALM      30.25F
VIROQUA        FAIR      38  35  89 CALM      30.21F
WIS DELLS      CLOUDY    35  33  92 E6        30.26R WCI  30
$$

...ELSEWHERE IN WISCONSIN...


CITY           SKY/WX    TMP DP  RH WIND       PRES   REMARKS
MILWAUKEE      FOG       33  31  92 N3        30.27R VSB 1/4
MADISON        CLOUDY    32  31  96 N5        30.25S FOG     WCI  27
GREEN BAY      CLEAR     33  32  96 NE8       30.31R WCI  26
EAU CLAIRE     CLOUDY    36  30  79 NE6       30.24S WCI  31
BLACK RVR FLS  FAIR      32  32 100 CALM      30.26S
MEDFORD        PTCLDY    32  28  83 E8        30.27R WCI  25
WAUSAU         PTCLDY    31  28  89 CALM      30.28R
WIS RAPIDS     PTCLDY    36  30  79 E5        30.29R WCI  32
MARSHFIELD     PTCLDY    36  28  73 E8        30.26R WCI  30
RICE LAKE      CLOUDY    32  30  93 CALM      30.26S
$$

...NORTHEAST IOWA...


CITY           SKY/WX    TMP DP  RH WIND       PRES   REMARKS
WATERLOO       CLOUDY    39  36  89 E15       30.16R WCI  31
DUBUQUE        MOCLDY    37  36  96 NE6       30.20R WCI  32
DECORAH        MOCLDY    41  37  87 E13       30.18S
MASON CITY     CLOUDY    42  36  79 E7        30.18R
CHARLES CITY   CLOUDY    41  37  87 E14G20    30.19R
OELWEIN        CLOUDY    39  37  93 E12       30.17S WCI  32
$$

...ELSEWHERE IN IOWA...


CITY           SKY/WX    TMP DP  RH WIND       PRES   REMARKS
DES MOINES     LGT RAIN  45  40  82 E9        30.10F
IOWA CITY      CLOUDY    43  40  89 E10       30.14F FOG
FORT DODGE     CLOUDY    43  37  81 NE9       30.13F
MARSHALLTOWN   CLOUDY    40  39  97 E14       30.14R WCI  32
CEDAR RAPIDS   CLOUDY    39  39 100 E12       30.13F FOG     WCI  32
$$

...NORTHERN ILLINOIS...


CITY           SKY/WX    TMP DP  RH WIND       PRES   REMARKS
CHICAGO-OHARE  FOG       35  33  92 NE7       30.24R VSB 3/4 WCI  29
CHICAGO-MIDWAY CLOUDY    37  36  96 NE8       30.25R FOG     WCI  31
MOLINE         CLOUDY    44  40  85 E15G24    30.16S
ROCKFORD       CLOUDY    36  35  96 E9        30.24S FOG     WCI  29
PEORIA         CLOUDY    45  43  93 E14       30.13F FOG
$$

NOTE: "FAIR" INDICATES FEW OR NO CLOUDS BELOW 12,000 FEET WITH NO
SIGNIFICANT WEATHER AND/OR OBSTRUCTIONS TO VISIBILITY. WIND
SPEEDS ARE IN MILES-PER-HOUR.




USA.gov is the U.S. government's official web portal to all federal, state and local government web resources and services.